Temp
18 18 18 18 18 18 18 18 18 18 17 18 18 17 17 17 17 18 18 18 18 18 18 18 18 18 19 20 20 20 20 21 21 22 21 20 18 18 18 18 17 17 18
19 18 18 18 18 18 18 18 18 18 19 19 18 18 18 17 17 17 18 18 18 18 18 18 18 19 18 19 19 19 20 20 19 20 20 20 18 17 17 17 18 17 17
19 18 18 18 18 18 18 18 18 18 19 18 18 18 18 18 18 18 18 18 18 18 18 18 18 18 18 19 18 19 20 19 18 18 19 19 19 18 18 17 17 16 15
19 19 19 18 18 18 18 18 18 19 19 19 19 19 18 18 18 18 17 17 17 18 18 18 18 18 18 17 18 17 18 18 18 18 18 20 18 18 17 17 16 16 16
18 18 18 18 18 18 18 18 18 17 18 18 17 18 18 17 18 18 18 18 17 18 18 17 17 17 18 18 18 18 18 18 18 18 18 19 18 19 18 17 16 15 15
18 18 18 18 18 18 19 20 20 18 17 19 19 19 17 18 18 19 18 17 17 18 17 17 17 18 18 18 18 18 18 18 18 18 18 18 17 17 17 17 16 16 16
19 20 19 19 19 19 19 18 18 17 17 17 17 17 17 17 18 19 19 18 17 17 17 17 17 17 18 18 19 19 18 18 18 18 18 17 17 17 16 17 16 16 16
18 18 18 18 18 19 19 18 18 18 17 17 17 17 17 17 19 19 18 18 18 17 17 18 18 18 18 18 18 18 18 18 18 16 18 17 17 17 16 16 16 16 15
18 18 18 19 17 17 17 18 18 17 17 17 17 17 17 18 18 18 18 18 18 18 18 18 18 18 17 16 17 17 17 17 17 17 17 17 16 16 16 15 15 16 17
17 17 18 18 17 17 17 17 17 18 17 16 16 17 17 17 18 18 18 17 17 16 17 17 17 17 16 16 16 16 16 16 16 15 15 15 15 15 15 15 15 15 15
16 18 17 16 15 16 15 16 16 16 16 15 16 16 16 17 17 17 16 15 15 15 15 15 16 16 15 15 14 14 15 15 15 15 14 14 14 14 14 14 15 15 12
15 16 15 16 16 15 15 15 15 15 15 14 15 14 15 15 16 15 15 15 15 15 15 14 14 13 14 13 13 13 14 13 14 13 13 13 13 13 13 14 14 14 13
16 16 15 15 15 15 14 14 14 14 14 13 14 14 14 14 15 15 14 14 14 13 13 13 13 13 13 13 13 13 12 11 12 11 11 12 12 13 13 13 13 12 13
15 14 14 14 14 14 13 13 13 13 13 13 13 14 14 13 14 14 14 14 13 13 13 13 12 12 11 10 10 10 11 11 10 11 11 12 12 12 12 12 10 10 9
14 14 14 14 14 13 13 13 13 13 13 13 13 13 13 13 13 13 13 13 13 12 12 11 11 11 11 10 10 9 10 9 10 10 11 11 11 10 10 9 10 9 8
13 14 13 13 13 13 13 13 13 12 12 12 13 13 12 12 12 12 11 10 10 10 10 10 10 10 9 9 10 10 10 10 10 10 8 7 8 7 8 8 9 7 7
13 13 13 12 12 12 12 12 12 11 11 12 11 12 11 10 10 10 10 9 10 9 9 9 9 10 10 10 10 10 10 10 10 11 9 9 8 9 7 7 7 7 7
11 11 11 11 11 11 11 11 11 10 10 10 9 9 9 10 10 10 10 9 10 9 9 9 9 9 9 10 10 9 9 9 10 9 7 7 7 7 7 6 6 6 6
10 10 11 11 11 11 11 11 10 10 10 9 10 10 10 10 9 9 9 9 8 9 9 9 9 9 9 9 9 9 9 8 8 8 6 6 5 6 5 5 6 6 6
10 11 10 11 11 10 9 10 9 9 9 9 9 10 10 10 10 9 9 8 8 8 8 7 8 9 8 9 8 9 8 8 8 6 5 5 6 6 4 4 4 4 4
11 11 11 11 11 11 10 10 10 10 10 10 10 9 10 8 9 8 8 8 8 8 8 7 7 6 8 8 8 8 7 6 6 7 7 7 6 4 4 3 3 3 3
11 11 11 11 11 10 10 10 10 10 10 10 9 10 10 9 9 9 8 8 8 8 7 7 8 8 8 8 8 7 6 6 5 6 6 5 5 5 5 3 3 3 3
11 11 11 11 11 10 10 10 11 10 10 10 10 9 10 9 9 9 9 8 8 8 7 7 7 6 6 6 7 5 5 5 4 4 4 4 4 3 3 3 3 3 3
11 11 11 11 10 11 11 11 10 10 10 10 10 10 9 9 9 9 8 8 8 7 7 7 6 6 6 6 5 5 5 4 4 5 3 3 3 3 3 3 4 3 4
11 11 11 11 10 10 11 10 11 10 10 10 10 10 10 10 9 9 9 8 8 8 7 7 7 6 6 7 5 5 5 6 5 4 3 3 3 3 4 4 4 4 3
11 11 10 11 10 10 10 10 10 10 10 10 10 10 10 10 9 9 9 9 8 8 8 8 7 6 6 6 6 5 6 6 5 5 3 3 3 3 4 3 3 3 3
Height
1566 1569 1572 1576 1578 1581 1583 1584 1586 1588 1590 1590 1591 1593 1594 1596 1597 1598 1600 1602 1602 1603 1604 1605 1605 1606 1608 1608 1608 1608 1608 1608 1606 1605 1604 1603 1602 1601 1600 1599 1593 1591 1589
1563 1566 1568 1571 1574 1577 1578 1581 1582 1584 1586 1587 1588 1590 1591 1593 1594 1595 1597 1599 1599 1600 1601 1602 1603 1604 1604 1604 1605 1605 1605 1604 1604 1603 1602 1602 1600 1599 1597 1596 1599 1590 1589
1559 1562 1565 1567 1570 1572 1575 1577 1578 1580 1582 1584 1585 1586 1588 1589 1590 1591 1592 1594 1596 1597 1598 1599 1599 1600 1600 1601 1601 1602 1602 1602 1600 1600 1600 1599 1598 1597 1594 1593 1593 1591 1589
1556 1558 1560 1562 1565 1567 1570 1573 1575 1576 1578 1579 1581 1582 1583 1585 1586 1588 1589 1590 1591 1592 1593 1594 1595 1596 1596 1596 1597 1597 1598 1598 1597 1598 1596 1596 1595 1594 1593 1591 1592 1593 1592
1552 1555 1556 1559 1561 1564 1566 1568 1570 1572 1573 1575 1577 1578 1579 1581 1583 1583 1585 1586 1586 1588 1589 1589 1591 1591 1590 1591 1592 1593 1593 1593 1594 1593 1594 1593 1592 1593 1592 1592 1590 1591 1590
1547 1549 1553 1555 1556 1558 1561 1562 1564 1566 1568 1570 1572 1574 1575 1577 1578 1579 1581 1582 1582 1582 1584 1585 1585 1585 1586 1587 1588 1588 1588 1590 1590 1590 1590 1590 1589 1590 1589 1589 1589 1588 1589
1541 1543 1546 1548 1550 1554 1556 1559 1561 1562 1564 1565 1568 1569 1571 1572 1572 1574 1575 1577 1578 1578 1578 1579 1580 1580 1581 1582 1583 1584 1585 1586 1586 1586 1587 1586 1586 1587 1586 1587 1587 1588 1587
1536 1538 1541 1542 1544 1546 1549 1551 1555 1555 1560 1561 1563 1564 1565 1566 1567 1569 1570 1572 1573 1573 1574 1574 1575 1575 1576 1577 1578 1578 1579 1580 1582 1583 1582 1582 1582 1582 1584 1584 1585 1586 1585
1531 1533 1537 1537 1539 1542 1543 1544 1545 1548 1552 1555 1557 1559 1560 1561 1562 1563 1564 1565 1566 1567 1568 1569 1570 1570 1571 1573 1573 1574 1574 1576 1577 1578 1579 1579 1579 1580 1581 1583 1585 1585 1585
1531 1530 1530 1530 1536 1536 1538 1539 1541 1542 1542 1548 1549 1553 1555 1556 1556 1557 1558 1559 1560 1561 1562 1563 1565 1565 1566 1568 1571 1570 1570 1572 1573 1575 1575 1577 1578 1578 1579 1580 1579 1581 1580
1523 1520 1527 1532 1533 1532 1535 1534 1535 1535 1536 1537 1541 1546 1548 1550 1551 1551 1551 1553 1555 1555 1555 1557 1558 1560 1562 1564 1566 1568 1567 1570 1571 1572 1574 1574 1576 1577 1576 1576 1575 1575 1576
1519 1522 1524 1523 1526 1531 1528 1526 1526 1528 1530 1532 1535 1537 1541 1544 1545 1547 1548 1549 1550 1551 1551 1552 1552 1553 1555 1559 1562 1563 1565 1568 1568 1569 1571 1572 1572 1573 1573 1573 1572 1573 1573
1517 1517 1520 1522 1522 1523 1525 1528 1526 1529 1528 1529 1530 1534 1538 1539 1541 1544 1546 1546 1546 1549 1551 1552 1553 1554 1555 1557 1558 1559 1561 1564 1565 1565 1567 1569 1571 1572 1571 1571 1571 1572 1572
1517 1519 1521 1523 1525 1527 1528 1528 1530 1529 1531 1532 1534 1535 1536 1537 1538 1541 1543 1544 1546 1547 1548 1549 1550 1551 1552 1552 1556 1557 1559 1561 1561 1563 1565 1567 1568 1569 1570 1569 1568 1569 1571
1518 1521 1522 1524 1526 1526 1527 1529 1530 1530 1533 1532 1533 1536 1538 1539 1540 1543 1545 1546 1546 1547 1548 1548 1550 1551 1553 1554 1556 1558 1558 1560 1560 1563 1565 1565 1565 1568 1567 1567 1568 1567 1570
1519 1519 1521 1523 1524 1525 1527 1529 1530 1530 1531 1532 1533 1534 1535 1538 1538 1540 1543 1545 1545 1546 1547 1549 1549 1550 1553 1556 1558 1556 1557 1559 1560 1561 1566 1567 1566 1569 1566 1566 1564 1567 1568
1520 1520 1522 1524 1526 1525 1526 1529 1529 1529 1530 1531 1532 1535 1536 1536 1538 1540 1540 1541 1543 1544 1545 1547 1552 1554 1554 1556 1558 1559 1558 1559 1561 1561 1563 1565 1565 1565 1567 1567 1566 1569 1568
1522 1523 1524 1526 1526 1526 1528 1529 1530 1531 1532 1532 1535 1536 1539 1539 1539 1541 1542 1541 1542 1545 1547 1548 1552 1554 1555 1555 1554 1556 1557 1559 1560 1562 1565 1564 1564 1564 1566 1566 1567 1569 1567
1526 1526 1528 1528 1528 1529 1530 1530 1531 1532 1534 1534 1537 1538 1539 1540 1539 1540 1543 1543 1545 1543 1548 1548 1551 1553 1552 1554 1553 1554 1556 1557 1557 1561 1562 1561 1562 1564 1566 1567 1565 1564 1565
1528 1528 1530 1531 1531 1532 1532 1532 1534 1533 1535 1535 1536 1538 1538 1539 1539 1539 1541 1543 1545 1546 1549 1550 1550 1550 1553 1553 1552 1554 1554 1555 1556 1559 1561 1559 1560 1562 1563 1563 1564 1564 1564
1532 1531 1532 1534 1534 1535 1534 1536 1534 1535 1536 1536 1539 1536 1537 1540 1541 1541 1541 1543 1547 1547 1547 1548 1548 1549 1550 1551 1552 1553 1553 1553 1554 1557 1560 1560 1559 1560 1560 1560 1561 1561 1560
1531 1532 1532 1533 1533 1532 1534 1534 1534 1535 1536 1536 1537 1537 1537 1537 1539 1540 1542 1544 1544 1545 1546 1546 1546 1546 1547 1549 1549 1550 1551 1552 1553 1554 1554 1557 1556 1557 1558 1558 1559 1562 1561
1529 1529 1530 1531 1532 1532 1532 1534 1536 1536 1536 1537 1537 1536 1535 1538 1540 1540 1541 1542 1543 1544 1544 1544 1543 1545 1545 1546 1546 1546 1548 1550 1551 1552 1553 1554 1556 1556 1557 1558 1557 1561 1561
1527 1528 1529 1529 1530 1531 1532 1533 1534 1534 1535 1536 1536 1536 1536 1537 1538 1539 1540 1541 1542 1542 1544 1543 1542 1543 1543 1543 1543 1544 1546 1547 1549 1550 1552 1553 1557 1557 1557 1557 1558 1558 1559
1524 1525 1525 1526 1527 1527 1529 1529 1530 1531 1531 1532 1532 1533 1534 1536 1537 1538 1539 1539 1539 1539 1540 1540 1541 1541 1540 1540 1542 1543 1545 1545 1547 1549 1550 1552 1555 1555 1556 1556 1557 1557 1555
1520 1521 1521 1522 1522 1524 1525 1526 1526 1528 1529 1529 1531 1532 1532 1533 1534 1534 1535 1535 1536 1537 1538 1539 1539 1539 1538 1539 1540 1541 1542 1543 1544 1546 1548 1551 1553 1554 1555 1554 1553 1553 1552
Wind_Speed
21 20 19 18 17 16 17 16 17 15 14 14 13 13 13 14 14 13 13 12 12 11 11 12 11 11 10 11 11 10 10 10 11 10 7 10 9 5 6 4 4 12 9
22 21 20 18 17 17 16 14 14 14 16 14 15 14 15 14 14 15 14 13 13 13 13 12 13 12 13 13 13 13 11 11 10 10 10 8 7 6 3 1 4 12 9
21 21 21 20 19 18 18 16 15 15 16 15 15 17 17 16 18 18 17 14 14 14 14 14 14 13 15 13 13 12 12 11 10 10 8 7 5 5 5 4 5 6 5
19 20 20 21 20 19 18 18 17 18 18 17 17 16 17 17 15 14 14 15 14 14 15 16 14 14 15 14 13 12 13 13 12 10 9 9 7 6 6 5 4 7 2
18 19 20 20 19 19 19 19 19 19 18 18 16 16 16 14 14 16 17 18 16 15 15 16 15 15 17 16 15 14 15 14 12 10 7 9 6 6 5 5 7 4 6
18 21 18 19 22 22 22 23 22 22 20 22 23 21 17 14 18 17 15 16 17 19 16 15 16 17 17 17 17 17 16 13 12 11 10 9 9 5 6 5 5 8 7
15 16 19 22 25 28 28 27 25 21 19 19 19 19 21 19 21 17 17 17 15 17 19 18 16 17 19 19 17 16 18 16 15 13 12 14 14 10 8 6 5 4 4
15 15 15 17 20 22 27 31 30 29 21 19 18 19 20 21 23 21 21 20 21 18 19 19 19 19 18 18 16 15 14 14 15 12 14 14 12 10 8 6 6 5 6
9 13 15 18 21 21 23 25 29 25 24 19 18 19 22 23 25 24 24 24 25 23 21 19 18 19 19 19 19 16 13 12 13 12 10 9 10 9 7 3 3 5 7
17 14 8 7 15 17 18 24 27 29 27 30 24 23 23 21 25 24 26 26 26 26 25 23 21 19 17 17 16 14 12 11 11 11 11 10 9 8 7 7 6 4 5
18 19 14 15 14 13 17 19 23 27 32 29 33 32 26 23 21 19 19 20 21 22 22 24 23 21 20 18 15 13 12 10 11 11 9 8 7 7 8 9 8 8 3
16 15 12 14 13 14 15 28 30 31 28 32 33 24 20 18 13 11 12 14 16 17 19 21 21 18 16 14 12 12 11 12 12 10 9 9 8 10 10 7 5 4 4
8 7 9 8 9 2 4 3 6 6 6 8 8 7 11 16 16 14 15 12 10 8 9 11 10 13 16 19 20 20 19 17 15 12 11 10 10 10 7 4 3 3 2
6 8 11 6 4 9 9 7 4 6 6 7 8 8 8 6 7 8 8 12 13 12 11 10 7 5 7 10 13 14 14 13 9 8 8 9 8 7 5 3 2 2 2
9 9 7 5 2 4 8 8 8 9 11 11 10 8 8 8 7 7 7 7 8 8 8 9 9 8 8 8 9 10 9 9 10 9 9 8 7 6 5 4 3 3 2
6 5 4 5 5 5 7 9 9 7 8 12 12 13 12 12 12 11 8 6 6 6 7 7 9 10 9 7 7 7 8 9 10 8 6 6 6 4 4 3 3 4 3
6 6 7 8 8 6 5 7 6 4 3 4 5 7 10 5 4 9 10 11 11 8 8 5 3 4 4 4 6 7 7 7 6 9 9 7 5 5 3 3 2 2 2
10 9 9 8 7 8 8 6 6 5 5 7 6 5 4 4 5 4 4 7 8 8 7 7 8 7 7 7 7 7 7 7 8 7 8 7 7 5 3 2 2 1 0
8 8 8 8 7 6 6 7 8 9 9 10 9 6 5 5 5 6 7 6 8 9 10 10 10 10 10 10 9 9 10 11 12 10 7 6 4 4 3 4 4 3 1
7 8 9 6 7 6 6 6 6 6 7 7 7 7 7 6 6 8 8 8 7 8 9 8 8 8 8 8 8 10 11 9 10 9 7 7 6 6 5 4 3 2 1
6 7 7 6 5 4 5 6 6 6 5 4 5 7 8 7 6 7 7 8 9 9 9 9 8 9 10 10 11 11 10 9 9 10 9 9 7 5 5 5 3 2 1
5 5 5 5 6 5 5 5 4 4 4 4 4 5 7 8 6 7 8 9 9 9 9 10 10 10 10 11 11 11 12 12 12 11 10 9 8 7 6 4 3 2 2
5 6 6 6 6 9 9 8 7 6 6 6 5 5 5 6 6 6 8 8 9 9 9 10 10 9 11 11 12 12 11 11 12 11 9 9 8 6 5 5 4 3 2
8 8 8 8 8 8 9 9 9 10 8 8 8 8 8 7 6 7 7 8 9 10 10 9 9 10 11 10 10 11 11 11 11 12 10 9 8 8 6 5 4 3 2
11 10 10 10 10 10 10 9 8 8 7 8 8 9 9 9 9 9 9 9 9 10 11 10 10 10 11 11 12 12 14 15 13 13 12 11 10 8 7 5 5 4 4
13 13 12 11 11 11 10 9 9 9 9 9 9 9 10 10 11 11 12 13 13 12 13 13 13 13 12 12 13 15 16 13 14 14 13 12 11 9 8 7 7 6 7
Wind_Direction
210 213 214 218 223 230 234 236 235 239 235 240 234 233 230 227 227 231 227 231 244 241 238 240 251 249 252 263 271 273 276 281 282 289 301 288 296 305 302 322 356 323 354
211 211 215 217 221 227 231 235 238 234 240 238 238 236 236 234 235 237 240 241 252 245 247 246 248 251 263 257 260 263 258 264 270 279 275 278 288 295 289 150 145 283 336
211 216 216 221 225 228 229 232 236 243 245 245 239 244 246 247 241 243 244 242 245 244 245 248 251 251 252 247 253 254 268 266 261 267 268 269 260 245 259 239 183 263 351
214 215 219 223 225 229 230 231 234 243 250 247 248 252 251 245 246 240 239 242 244 243 244 244 246 250 250 254 252 256 258 257 265 262 261 261 250 249 250 236 170 169 164
223 223 226 228 230 232 231 232 235 237 243 239 241 248 245 242 250 247 248 248 246 243 243 246 250 246 245 255 262 263 256 256 255 268 258 257 260 250 248 251 225 182 204
237 241 240 242 239 240 242 244 241 240 241 241 243 246 243 241 243 253 257 254 251 251 248 245 239 248 257 257 258 257 255 260 261 250 241 255 249 249 243 212 241 216 224
257 255 254 260 259 252 252 253 247 239 238 240 241 245 244 245 248 246 252 253 254 259 252 240 236 247 255 251 248 250 247 247 246 248 245 244 252 246 210 190 220 213 219
265 264 251 257 271 266 251 249 248 252 237 234 239 241 241 242 251 256 254 253 257 254 253 253 251 254 244 241 237 232 228 245 240 229 239 239 241 220 196 212 234 263 279
254 268 261 269 271 268 259 258 241 225 227 229 233 240 246 251 254 257 253 249 250 253 252 248 248 251 247 242 231 231 230 230 228 231 228 218 204 200 209 181 266 272 262
250 258 241 271 262 268 260 253 246 248 247 245 246 244 248 252 256 258 254 249 244 242 240 248 252 239 223 220 223 216 209 217 207 195 190 191 197 206 225 235 245 252 241
244 272 264 255 264 275 271 272 266 252 235 233 234 241 247 254 259 253 241 240 236 242 241 244 237 216 204 203 207 208 204 207 198 194 193 202 221 247 261 260 262 238 192
219 230 243 260 266 256 274 266 241 235 237 238 225 219 232 235 241 239 241 237 238 243 243 221 205 195 190 193 203 200 195 196 193 199 217 240 257 271 274 275 251 233 212
188 202 213 229 166 131 186 200 180 169 168 172 160 194 235 221 225 245 243 237 208 219 225 222 237 239 236 231 226 222 213 207 206 210 229 244 249 263 261 238 218 196 190
121 140 142 149 129 165 167 171 189 165 170 175 172 182 179 175 169 203 228 223 226 233 228 219 204 202 208 211 209 201 199 203 204 214 230 242 255 236 214 186 157 107 121
165 176 187 199 241 175 181 203 225 220 224 217 203 199 190 186 185 203 213 212 194 191 199 185 186 189 187 182 188 195 196 202 207 222 229 210 195 187 178 161 163 122 151
171 180 202 221 217 206 218 224 244 226 247 233 212 209 202 203 195 200 188 172 160 158 165 175 174 173 171 176 196 194 211 213 216 189 166 184 158 171 167 165 149 139 139
119 142 137 141 134 136 164 176 187 195 219 230 236 254 243 199 214 222 203 165 159 163 148 144 163 183 185 210 225 217 214 191 195 215 197 191 177 181 146 167 145 142 140
115 114 118 120 116 122 129 131 139 141 147 135 126 112 113 122 125 124 130 147 154 151 149 159 198 210 205 190 188 200 202 196 203 193 174 180 166 157 167 171 146 169 323
106 112 104 103 109 135 146 147 142 141 144 145 150 171 179 185 177 178 178 168 182 170 182 193 210 212 207 204 195 199 200 193 193 197 187 171 160 147 166 183 216 215 137
137 136 127 114 104 115 135 143 156 156 163 178 193 207 206 197 193 185 183 186 179 194 185 205 187 201 210 214 208 209 212 209 205 195 194 191 196 192 190 189 179 175 161
146 158 153 153 150 143 137 147 147 155 168 180 203 215 212 183 191 196 198 201 197 198 198 194 197 200 221 224 222 219 209 198 201 212 219 230 227 198 195 193 196 190 170
190 194 197 198 207 202 192 183 175 183 183 186 189 224 208 195 207 212 212 212 211 204 206 209 222 231 234 235 226 215 212 211 214 215 216 219 214 213 206 191 189 207 245
217 222 225 216 211 216 217 209 216 217 217 215 209 208 192 194 212 212 212 207 208 206 213 219 225 215 228 230 226 218 211 210 213 214 209 211 207 194 188 191 187 217 256
228 223 222 222 219 216 221 221 220 221 218 228 224 218 214 219 222 225 216 217 216 217 221 221 222 227 231 225 225 219 214 211 215 216 200 193 193 196 185 184 193 222 260
233 231 226 224 226 223 224 220 228 229 235 233 232 231 233 239 241 240 238 232 233 230 234 232 234 236 240 239 216 213 219 229 210 202 194 192 193 194 195 209 225 256 278
241 239 233 229 225 220 220 221 220 221 225 230 230 233 235 240 244 243 243 243 245 247 242 244 238 231 230 233 226 219 229 218 216 205 196 203 208 216 227 234 249 261 277